Location: Gensac
(43.2177°N, 1.1313°E)
Time: 03:25:12
(UTC+00:00)

Cosmos 2360 Rocket - Pass Details

Date: 08 December 2025
Orbit: 834 x 842 km, 71.0° (Epoch: 12 January)

Event Time Altitude Azimuth Distance (km) Brightness Sun altitude
Exits shadow 06:22:01 - 334° (NNW) 3,136 4.7 -9.4°
Reaches altitude 10° 06:23:47 10° 334° (NNW) 2,457 4.2 -9.1°
Maximum altitude 06:29:26 86° 247° (WSW) 843 2.2 -8.2°
Drops below altitude 10° 06:35:02 10° 159° (SSE) 2,437 5.3 -7.2°
Sets 06:37:27 0° 159° (SSE) 3,367 6.1 -6.8°
